Regional Weather Roundup
Issued by NWS

Home | Current Version | Previous Version | Graphics & Text | Print | Product List | Glossary Off
Versions: 1 2 3 4 5 6 7 8 9 10 11 12 13 14 15 16 17 18 19 20 21 22 23 24 25 26 27 28 29 30 31 32 33 34 35 36 37 38 39 40 41 42 43 44 45 46 47 48 49 50

000
ASUS43 KFSD 280510
RWRSD

WEATHER ROUNDUP FOR SOUTH DAKOTA
NATIONAL WEATHER SERVICE SIOUX FALLS SD
1200 AM CDT FRI JUL 28 2017

NOTE: "FAIR" INDICATES FEW OR NO CLOUDS BELOW 12,000 FEET WITH NO
SIGNIFICANT WEATHER AND/OR OBSTRUCTIONS TO VISIBILITY.


SDZ001>005-009-010-012>017-280600-
NORTHWEST AND NORTH CENTRAL SOUTH DAKOTA

CITY           SKY/WX    TMP DP  RH WIND       PRES   REMARKS
BUFFALO          N/A     63  55  75 E14       29.99S
FAITH            N/A     63  60  90 CALM      30.06R
MOBRIDGE       CLOUDY    74  59  59 SE12      30.01R
$$

SDZ012>016-024>037-041>051-057-063-072>074-280600-
SOUTHWEST AND SOUTH CENTRAL SOUTH DAKOTA

CITY           SKY/WX    TMP DP  RH WIND       PRES   REMARKS
RAPID CTY ARPT CLEAR     61  55  81 SW12      30.07R
PIERRE         CLOUDY    75  55  49 SE12      30.01S
CUSTER         CLOUDY    54  51  90 CALM      30.18S
ELLSWORTH AFB  CLEAR     62  57  84 SW15      30.06S
PHILIP         CLOUDY    68  60  75 S16       29.99R
PINE RIDGE     PTCLDY    62  60  93 E8        30.09F
SPEARFISH      FAIR      61  57  88 S3        30.05S
WINNER         FAIR      73  60  63 S9        30.07R
$$

SDZ004>011-016>023-039-040-280600-
NORTHEAST SOUTH DAKOTA

CITY           SKY/WX    TMP DP  RH WIND       PRES   REMARKS
ABERDEEN       MOCLDY    68  62  81 E6        30.05S
WATERTOWN      PTCLDY    68  59  73 E3        30.07S
BROOKINGS      CLEAR     69  62  78 VRB3      30.08R
SISSETON         N/A     63  60  90 CALM      30.06R
$$

SDZ017-020-022-023-036>040-048>070-280600-
SOUTHEAST SOUTH DAKOTA

CITY           SKY/WX    TMP DP  RH WIND       PRES   REMARKS
SIOUX FALLS    CLOUDY    67  64  90 CALM      30.06R
HURON          PTCLDY    70  63  78 SE5       30.05R
CHAMBERLAIN    PTCLDY    72  65  76 SE6       30.06R
MITCHELL       CLEAR     69  64  84 SE6       30.05S
YANKTON        MOCLDY    68  63  84 E3        30.06R
$$

ABBREVIATIONS USED IN REMARKS
   TC - TEMPERATURE IN CELSIUS
  WCI - WIND CHILL INDEX
   HX - HEAT INDEX
  VSB - VISIBILITY





USA.gov is the U.S. government's official web portal to all federal, state and local government web resources and services.